Martinsburg, WV

2:37 AM EST on February 23, 2017 (GMT -0500)
Eastern W Va Regional-Shepherd

Weather History for KMRB - June, 2014

Change the Weather History Date:

Saturday, June 28, 2014

  Actual Average Record
Temperature  
Mean Temperature 76 °F 74 °F  
Max Temperature 85 °F 85 °F 100 °F (1943)
Min Temperature 66 °F 62 °F 46 °F (1927)
Degree Days  
Heating Degree Days 0 0  
Month to date heating degree days 2 22  
Since 1 June heating degree days 2 22  
Since 1 July heating degree days 5388 5247  
Cooling Degree Days 11 9  
Month to date cooling degree days 213 165  
Year to date cooling degree days 294 222  
Since 1 June cooling degree days 213 165  
Growing Degree Days 25 (Base 50)    
Moisture  
Dew Point 59 °F    
Average Humidity 60    
Maximum Humidity 87    
Minimum Humidity 32    
Precipitation  
Precipitation 0.00 in 0.11 in 1.20 in (1937)
Month to date precipitation 2.66 3.52  
Year to date precipitation 17.53 19.25  
Sea Level Pressure  
Sea Level Pressure 30.23 in    
Wind  
Wind Speed 5 mph (SE)    
Max Wind Speed 14 mph    
Max Gust Speed 18 mph    
Visibility 10 miles    
Events      
T = Trace of Precipitation, MM = Missing Value Source: NWS Daily Summary

Daily Weather History Graph

Daily Weather History Graph

Search for Another Location

Airport or City:

Trip Planner

Search our weather history database for the weather conditions in past years. The results will help you decide how hot, cold, wet, or windy it might be!

Date:

Astronomy

Jun. 28, 2014 Rise Set
Actual Time 5:47 AM EDT 8:42 PM EDT
Civil Twilight 5:15 AM EDT 9:15 PM EDT
Nautical Twilight 4:34 AM EDT 9:56 PM EDT
Astronomical Twilight 3:46 AM EDT 10:43 PM EDT
Moon 7:08 AM EDT (6/28) 9:27 PM EDT (6/28)
Length of Visible Light 16h 00m
Length of Day
14h 55m
New Moon, 2% of the Moon is Illuminated
Jun 28
New Moon
Jul 5
First Quarter
Jul 12
Full
Jul 18
Last Quarter
Jul 26
New

Hourly Weather History & Observations

Time (EDT) Temp. Heat Index Dew Point Humidity Pressure Visibility Wind Dir Wind Speed Gust Speed Precip Events Conditions
12:53 AM 70.0 °F - 64.0 °F 81% 30.19 in 10.0 mi Calm Calm - N/A   Partly Cloudy
1:53 AM 68.0 °F - 63.0 °F 84% 30.20 in 10.0 mi East 3.5 mph - N/A   Scattered Clouds
2:15 AM 69.1 °F - 64.0 °F 84% 30.21 in 10.0 mi ESE 3.5 mph - N/A   Mostly Cloudy
2:39 AM 68.0 °F - 63.0 °F 84% 30.21 in 10.0 mi ESE 3.5 mph - N/A   Scattered Clouds
2:53 AM 69.1 °F - 63.0 °F 81% 30.20 in 10.0 mi Calm Calm - N/A   Clear
3:53 AM 66.9 °F - 63.0 °F 87% 30.21 in 9.0 mi Calm Calm - N/A   Scattered Clouds
4:03 AM 66.9 °F - 62.1 °F 84% 30.22 in 10.0 mi ENE 3.5 mph - N/A   Mostly Cloudy
4:53 AM 69.1 °F - 63.0 °F 81% 30.21 in 10.0 mi Calm Calm - N/A   Overcast
5:16 AM 68.0 °F - 63.0 °F 84% 30.22 in 10.0 mi ESE 3.5 mph - N/A   Scattered Clouds
5:53 AM 66.0 °F - 62.1 °F 87% 30.21 in 10.0 mi Calm Calm - N/A   Clear
6:53 AM 69.1 °F - 63.0 °F 81% 30.24 in 10.0 mi Calm Calm - N/A   Partly Cloudy
7:42 AM 70.0 °F - 62.1 °F 76% 30.26 in 10.0 mi Variable 3.5 mph - N/A   Mostly Cloudy
7:53 AM 71.1 °F - 61.0 °F 70% 30.25 in 10.0 mi SE 4.6 mph - N/A   Overcast
8:13 AM 71.1 °F - 60.1 °F 68% 30.27 in 10.0 mi SE 3.5 mph - N/A   Overcast
8:53 AM 73.0 °F - 59.0 °F 61% 30.27 in 10.0 mi East 4.6 mph - N/A   Overcast
9:53 AM 75.9 °F - 59.0 °F 56% 30.27 in 10.0 mi Variable 4.6 mph - N/A   Clear
10:53 AM 78.1 °F - 55.0 °F 45% 30.27 in 10.0 mi Calm Calm - N/A   Clear
11:53 AM 81.0 °F 80.8 °F 55.9 °F 42% 30.28 in 10.0 mi Variable 5.8 mph - N/A   Clear
12:53 PM 82.0 °F 81.4 °F 55.0 °F 39% 30.27 in 10.0 mi SSE 5.8 mph - N/A   Clear
1:53 PM 84.0 °F - 52.0 °F 33% 30.25 in 10.0 mi SSE 11.5 mph - N/A   Clear
2:53 PM 84.0 °F - 52.0 °F 33% 30.24 in 10.0 mi SE 9.2 mph - N/A   Clear
3:53 PM 84.0 °F 82.5 °F 53.1 °F 34% 30.22 in 10.0 mi SSE 9.2 mph 17.3 mph N/A   Clear
4:53 PM 84.0 °F 82.9 °F 55.0 °F 37% 30.21 in 10.0 mi ESE 8.1 mph - N/A   Clear
5:53 PM 82.9 °F 82.1 °F 55.9 °F 39% 30.19 in 10.0 mi SSE 12.7 mph - N/A   Clear
6:53 PM 82.0 °F 81.6 °F 55.9 °F 41% 30.21 in 10.0 mi South 9.2 mph - N/A   Clear
7:53 PM 79.0 °F - 54.0 °F 42% 30.22 in 10.0 mi South 5.8 mph - N/A   Clear
8:53 PM 75.0 °F - 54.0 °F 48% 30.22 in 10.0 mi SSE 4.6 mph - N/A   Clear
9:53 PM 73.0 °F - 55.9 °F 55% 30.23 in 10.0 mi SE 5.8 mph - N/A   Clear
10:53 PM 71.1 °F - 57.0 °F 61% 30.23 in 10.0 mi South 3.5 mph - N/A   Partly Cloudy
11:53 PM 71.1 °F - 57.0 °F 61% 30.24 in 10.0 mi Calm Calm - N/A   Partly Cloudy